N585RS KMEM-KMEM

Flight info

Callsign N585RS
Flight time 0h 15m
Altitude VFR/013
Route PATTERN
Aircraft BE58/L-VGD/C

Departure

Time 2026-05-04 02:19
Airport Memphis International Airport (KMEM)

Arrival

Time 2026-05-04 02:35
Airport Memphis International Airport (KMEM)
Time Latitude Longitude Altitude Speed Heading
2026-05-04 02:19 35.01933 -89.98662 960 ft 120 kts 180°
2026-05-04 02:19 35.01136 -89.98761 1229 ft 108 kts 210°
2026-05-04 02:19 35.00819 -89.99527 1270 ft 115 kts 269°
2026-05-04 02:19 35.00947 -90.00529 1259 ft 121 kts 270°
2026-05-04 02:20 35.01230 -90.01487 1310 ft 124 kts 301°
2026-05-04 02:20 35.01968 -90.02079 1233 ft 131 kts 342°
2026-05-04 02:20 35.02885 -90.02135 1190 ft 133 kts 355°
2026-05-04 02:20 35.03834 -90.02176 1182 ft 139 kts 355°
2026-05-04 02:21 35.04804 -90.02178 1211 ft 140 kts 358°
2026-05-04 02:21 35.05783 -90.02153 1253 ft 142 kts 360°
2026-05-04 02:21 35.06772 -90.02066 1261 ft 141 kts 11°
2026-05-04 02:21 35.07573 -90.01530 1086 ft 129 kts 46°
2026-05-04 02:22 35.07995 -90.00621 847 ft 119 kts 81°
2026-05-04 02:22 35.08009 -89.99692 767 ft 100 kts 108°
2026-05-04 02:22 35.07631 -89.99047 603 ft 98 kts 149°
2026-05-04 02:22 35.06976 -89.98808 553 ft 96 kts 172°
2026-05-04 02:23 35.06321 -89.98769 519 ft 96 kts 182°
2026-05-04 02:23 35.05658 -89.98755 466 ft 93 kts 181°
2026-05-04 02:23 35.05056 -89.98745 369 ft 85 kts 180°
2026-05-04 02:23 35.04519 -89.98734 325 ft 77 kts 179°
2026-05-04 02:24 35.03801 -89.98712 478 ft 116 kts 179°
2026-05-04 02:24 35.02984 -89.98718 726 ft 117 kts 180°
2026-05-04 02:24 35.02159 -89.98765 926 ft 121 kts 182°
2026-05-04 02:24 35.01320 -89.98807 1127 ft 120 kts 193°
2026-05-04 02:25 35.00841 -89.99458 1306 ft 107 kts 259°
2026-05-04 02:25 35.00805 -90.00358 1189 ft 107 kts 263°
2026-05-04 02:25 35.00821 -90.01273 1108 ft 111 kts 280°
2026-05-04 02:25 35.01388 -90.01985 1071 ft 130 kts 336°
2026-05-04 02:26 35.02291 -90.02073 1076 ft 131 kts 358°
2026-05-04 02:26 35.03212 -90.02048 1115 ft 134 kts
2026-05-04 02:26 35.04159 -90.02041 1183 ft 136 kts 358°
2026-05-04 02:26 35.05128 -90.02040 1210 ft 142 kts 357°
2026-05-04 02:27 35.06127 -90.02000 1238 ft 146 kts 359°
2026-05-04 02:27 35.07147 -90.01936 1306 ft 146 kts
2026-05-04 02:27 35.07717 -90.01621 1283 ft 130 kts 40°
2026-05-04 02:27 35.08157 -90.00740 1066 ft 111 kts 83°
2026-05-04 02:28 35.08222 -89.99850 831 ft 106 kts 97°
2026-05-04 02:28 35.08096 -89.99024 740 ft 95 kts 128°
2026-05-04 02:28 35.07558 -89.98718 602 ft 88 kts 187°
2026-05-04 02:28 35.06941 -89.98799 543 ft 91 kts 184°
2026-05-04 02:29 35.06292 -89.98778 547 ft 97 kts 178°
2026-05-04 02:29 35.05551 -89.98753 649 ft 120 kts 177°
2026-05-04 02:29 35.04622 -89.98715 781 ft 148 kts 180°
2026-05-04 02:29 35.03518 -89.98711 936 ft 166 kts 181°
2026-05-04 02:30 35.02413 -89.98710 1204 ft 142 kts 182°
2026-05-04 02:30 35.01491 -89.98740 1292 ft 126 kts 184°
2026-05-04 02:30 35.00773 -89.99083 1372 ft 105 kts 231°
2026-05-04 02:30 35.00627 -89.99967 1135 ft 112 kts 266°
2026-05-04 02:31 35.00739 -90.00895 987 ft 117 kts 290°
2026-05-04 02:31 35.01442 -90.01509 999 ft 136 kts 348°
2026-05-04 02:31 35.02402 -90.01554 987 ft 140 kts 358°
2026-05-04 02:31 35.03380 -90.01557 1036 ft 142 kts
2026-05-04 02:32 35.04369 -90.01513 1086 ft 143 kts
2026-05-04 02:32 35.05376 -90.01481 1169 ft 145 kts 358°
2026-05-04 02:32 35.06396 -90.01484 1209 ft 147 kts 357°
2026-05-04 02:32 35.07379 -90.01419 1250 ft 133 kts 19°
2026-05-04 02:33 35.07937 -90.00697 1013 ft 121 kts 75°
2026-05-04 02:33 35.08057 -89.99748 937 ft 107 kts 90°
2026-05-04 02:33 35.07881 -89.98929 810 ft 94 kts 132°
2026-05-04 02:33 35.07335 -89.98655 614 ft 90 kts 187°
2026-05-04 02:34 35.06668 -89.98765 550 ft 102 kts 187°
2026-05-04 02:34 35.06006 -89.98774 482 ft 92 kts 178°
2026-05-04 02:34 35.05363 -89.98753 414 ft 89 kts 180°
2026-05-04 02:34 35.04805 -89.98739 330 ft 73 kts 179°
2026-05-04 02:35 35.04451 -89.98732 324 ft 38 kts 179°
2026-05-04 02:35 35.04229 -89.98721 322 ft 27 kts 162°
2026-05-04 02:35 35.04188 -89.98610 324 ft 0 kts 88°
2026-05-04 02:36 35.04188 -89.98603 324 ft 5 kts 90°
2026-05-04 02:36 35.04227 -89.98500 325 ft 22 kts
2026-05-04 02:37 35.04426 -89.98503 325 ft 34 kts 359°
2026-05-04 02:37 35.04640 -89.98510 325 ft 32 kts
2026-05-04 02:37 35.04844 -89.98512 325 ft 27 kts
2026-05-04 02:37 35.05036 -89.98513 325 ft 30 kts
2026-05-04 02:38 35.05275 -89.98512 325 ft 35 kts
2026-05-04 02:38 35.05456 -89.98510 325 ft 19 kts
2026-05-04 02:38 35.05556 -89.98505 325 ft 18 kts 25°
2026-05-04 02:38 35.05554 -89.98382 323 ft 17 kts 138°
2026-05-04 02:39 35.05470 -89.98335 324 ft 12 kts 191°
2026-05-04 02:39 35.05447 -89.98375 323 ft 1 kts 277°